,,PA_Meas_PMT16A,,PR_Meas_QMR101_102,,RH_Meas_QMH101,,SR_Meas_QMS101,,TA_Meas_QMH101,,GenWind,,GenWind,
time,status,PA,status,PR,status,RH,status,SR,status,TA,status,DirAvg,status,SpdAvg,
2016-04-27, 07:16:04,VALID,917.322,VALID,0,INVALID,109.846,VALID,93.044,VALID,19.7823,VALID,151,VALID,0.0453125,
2016-04-27, 07:18:04,VALID,917.35,VALID,0,INVALID,109.739,VALID,100.995,VALID,19.8603,VALID,174,VALID,0.724219,
2016-04-27, 07:21:04,VALID,917.379,VALID,0,INVALID,109.724,VALID,111.309,VALID,19.9398,VALID,175,VALID,1.77109,
2016-04-27, 07:22:04,VALID,917.416,VALID,0,INVALID,109.739,VALID,114.317,VALID,19.9593,VALID,196,VALID,1.73203,
2016-04-27, 07:23:04,VALID,917.411,VALID,0,INVALID,109.739,VALID,116.896,VALID,19.9968,VALID,159,VALID,0.95,
2016-04-27, 07:25:04,VALID,917.389,VALID,0,INVALID,109.8,VALID,112.921,VALID,19.9758,VALID,165,VALID,1.42734,
2016-04-27, 07:26:04,VALID,917.377,VALID,0,INVALID,109.815,VALID,120.764,VALID,19.9968,VALID,195,VALID,1.62148,
2016-04-27, 07:27:04,VALID,917.415,VALID,0,INVALID,109.831,VALID,122.805,VALID,19.9953,VALID,157,VALID,2.12344,
2016-04-27, 07:28:04,VALID,917.39,VALID,0,INVALID,109.785,VALID,128.5,VALID,20.0343,VALID,160,VALID,1.10625,
2016-04-27, 07:29:04,VALID,917.41,VALID,0,INVALID,109.846,VALID,128.714,VALID,20.0148,VALID,142,VALID,2.33984,
2016-04-27, 07:30:04,VALID,917.45,VALID,0,INVALID,109.846,VALID,131.401,VALID,20.0538,VALID,136,VALID,1.85039,
2016-04-27, 07:31:04,VALID,917.465,VALID,0,INVALID,109.792,VALID,122.59,VALID,20.0733,VALID,155,VALID,1.3793,
2016-04-27, 07:32:04,VALID,917.479,VALID,0,INVALID,109.8,VALID,150.31,VALID,20.1123,VALID,165,VALID,0.727734,
2016-04-27, 07:33:04,VALID,917.506,VALID,0,INVALID,109.754,VALID,150.31,VALID,20.1708,VALID,157,VALID,1.23594,
2016-04-27, 07:34:04,VALID,917.51,VALID,0,INVALID,109.823,VALID,159.872,VALID,20.1708,VALID,175,VALID,1.2457,
2016-04-27, 07:35:04,VALID,917.53,VALID,0,INVALID,109.838,VALID,164.707,VALID,20.2293,VALID,159,VALID,0.877734,
2016-04-27, 07:36:04,VALID,917.558,VALID,0,INVALID,109.823,VALID,162.129,VALID,20.2684,VALID,206,VALID,0.562109,
2016-04-27, 07:37:04,VALID,917.576,VALID,0,INVALID,109.785,VALID,169.435,VALID,20.3464,VALID,181,VALID,1.14297,
2016-04-27, 07:38:04,VALID,917.57,VALID,0,INVALID,109.861,VALID,153.748,VALID,20.3854,VALID,176,VALID,1.01289,
2016-04-27, 07:39:04,VALID,917.635,VALID,0,INVALID,109.892,VALID,176.203,VALID,20.4439,VALID,165,VALID,1.44336,
2016-04-27, 07:40:04,VALID,917.62,VALID,0,INVALID,110.097,VALID,208.543,VALID,20.4049,VALID,185,VALID,1.59258,
2016-04-27, 07:41:04,VALID,917.673,VALID,0,INVALID,110.067,VALID,219.717,VALID,20.504,VALID,202,VALID,0.390234,
2016-04-27, 07:42:04,VALID,917.642,VALID,0,INVALID,110.021,VALID,224.874,VALID,20.5804,VALID,199,VALID,1.14922,
2016-04-27, 07:43:04,VALID,917.687,VALID,0,INVALID,110.105,VALID,220.899,VALID,20.6585,VALID,212,VALID,0.624219,
2016-04-27, 07:44:04,VALID,917.682,VALID,0,INVALID,110.242,VALID,231.106,VALID,20.678,VALID,164,VALID,1.00312,
2016-04-27, 07:45:04,VALID,917.708,VALID,0,INVALID,110.326,VALID,255.495,VALID,20.7365,VALID,185,VALID,1.43555,
2016-04-27, 07:46:04,VALID,917.723,VALID,0,INVALID,110.555,VALID,276.768,VALID,20.756,VALID,165,VALID,0.309375,
2016-04-27, 07:47:04,VALID,917.76,VALID,0,INVALID,110.601,VALID,253.239,VALID,20.8129,VALID,211,VALID,0,
2016-04-27, 07:48:04,VALID,917.739,VALID,0,INVALID,110.646,VALID,276.876,VALID,20.9105,VALID,164,VALID,1.10625,
2016-04-27, 07:49:04,VALID,917.78,VALID,0,INVALID,110.844,VALID,295.785,VALID,20.969,VALID,186,VALID,1.14023,
2016-04-27, 07:50:04,VALID,917.75,VALID,0,INVALID,111.066,VALID,295.893,VALID,20.9885,VALID,188,VALID,1.21133,
2016-04-27, 07:51:04,VALID,917.79,VALID,0,INVALID,111.149,VALID,321.249,VALID,21.1071,VALID,195,VALID,1.2375,
2016-04-27, 07:52:04,VALID,917.812,VALID,0,INVALID,111.454,VALID,245.288,VALID,21.1657,VALID,156,VALID,0.873828,
2016-04-27, 07:53:04,VALID,917.836,VALID,0,INVALID,111.675,VALID,220.147,VALID,21.1852,VALID,195,VALID,0.757813,
2016-04-27, 07:54:04,VALID,917.848,VALID,0,INVALID,111.805,VALID,229.817,VALID,21.2242,VALID,168,VALID,0.831641,
2016-04-27, 07:55:04,VALID,917.864,VALID,0,INVALID,111.881,VALID,273.653,VALID,21.3217,VALID,183,VALID,0.334375,
2016-04-27, 07:56:04,VALID,917.848,VALID,0,INVALID,111.912,VALID,277.306,VALID,21.3998,VALID,196,VALID,0.0417969,
2016-04-27, 07:57:04,VALID,917.878,VALID,0,INVALID,111.782,VALID,311.579,VALID,21.4778,VALID,191,VALID,0,
2016-04-27, 07:58:04,VALID,917.876,VALID,0,INVALID,111.523,VALID,323.183,VALID,21.5152,VALID,188,VALID,0,
2016-04-27, 07:59:04,VALID,917.864,VALID,0,INVALID,110.966,VALID,312.117,VALID,21.5347,VALID,183,VALID,0,
2016-04-27, 08:00:04,VALID,917.923,VALID,0,INVALID,110.768,VALID,308.464,VALID,21.6339,VALID,185,VALID,0,
2016-04-27, 08:01:04,VALID,917.928,VALID,0,INVALID,110.433,VALID,325.439,VALID,21.7103,VALID,185,VALID,0,
2016-04-27, 08:02:04,VALID,917.876,VALID,0,INVALID,110.029,VALID,334.249,VALID,21.7493,VALID,142,VALID,0.0785156,
2016-04-27, 08:03:04,VALID,917.944,VALID,0,INVALID,109.625,VALID,329.952,VALID,21.7103,VALID,184,VALID,0,
2016-04-27, 08:04:04,VALID,917.933,VALID,0,INVALID,109.632,VALID,333.175,VALID,21.8079,VALID,182,VALID,0,
2016-04-27, 08:05:04,VALID,917.978,VALID,0,INVALID,109.907,VALID,323.935,VALID,21.9444,VALID,174,VALID,0,
2016-04-27, 08:06:04,VALID,917.972,VALID,0,VALID,104,VALID,308.141,VALID,21.9233,VALID,183,VALID,0,
2016-04-27, 08:07:04,VALID,918.011,VALID,0,VALID,104,VALID,253.561,VALID,22.0225,VALID,153,VALID,0,
2016-04-27, 08:08:04,VALID,918.027,VALID,0,VALID,104,VALID,350.473,VALID,22.1591,VALID,158,VALID,0,
2016-04-27, 08:09:04,VALID,918.005,VALID,0,VALID,104,VALID,360.465,VALID,22.1769,VALID,180,VALID,0,
2016-04-27, 08:10:04,VALID,918,VALID,0,VALID,104,VALID,362.829,VALID,22.3542,VALID,196,VALID,0,
2016-04-27, 08:11:04,VALID,918.036,VALID,0,VALID,104,VALID,367.986,VALID,22.4323,VALID,184,VALID,0,
2016-04-27, 08:12:04,VALID,918.028,VALID,0,VALID,104,VALID,324.687,VALID,22.6257,VALID,184,VALID,0,
2016-04-27, 08:13:04,VALID,918.054,VALID,0,VALID,104,VALID,189.634,VALID,22.6257,VALID,136,VALID,0,
2016-04-27, 08:14:04,VALID,918.071,VALID,0,VALID,104,VALID,225.949,VALID,22.5689,VALID,150,VALID,0,
2016-04-27, 08:15:04,VALID,918.095,VALID,0,VALID,104,VALID,389.797,VALID,22.5477,VALID,225,VALID,0,
2016-04-27, 08:16:04,VALID,918.123,VALID,0,VALID,104,VALID,232.395,VALID,22.5867,VALID,204,VALID,0,
2016-04-27, 08:17:04,VALID,918.117,VALID,0,VALID,104,VALID,191.03,VALID,22.6257,VALID,181,VALID,0,
2016-04-27, 08:18:04,VALID,918.142,VALID,0,VALID,104,VALID,309.753,VALID,22.663,VALID,122,VALID,0,
2016-04-27, 08:19:04,VALID,918.145,VALID,0,VALID,104,VALID,401.293,VALID,22.7038,VALID,158,VALID,0,
2016-04-27, 08:20:04,VALID,918.133,VALID,0,VALID,104,VALID,335.324,VALID,22.6062,VALID,153,VALID,0.686719,
2016-04-27, 08:21:04,VALID,918.124,VALID,0,VALID,104,VALID,367.234,VALID,22.7038,VALID,153,VALID,0,
2016-04-27, 08:22:04,VALID,918.094,VALID,0,VALID,104,VALID,331.134,VALID,22.7623,VALID,131,VALID,0.208203,
2016-04-27, 08:23:04,VALID,918.11,VALID,0,VALID,103.457,VALID,281.281,VALID,22.6062,VALID,155,VALID,0,
2016-04-27, 08:24:04,VALID,918.105,VALID,0,VALID,104,VALID,277.735,VALID,22.372,VALID,154,VALID,0,
2016-04-27, 08:25:04,VALID,918.052,VALID,0,VALID,104,VALID,279.025,VALID,22.2745,VALID,145,VALID,0,
2016-04-27, 08:26:04,VALID,918.033,VALID,0,VALID,104,VALID,273.33,VALID,22.2142,VALID,157,VALID,0,
2016-04-27, 08:27:04,VALID,917.997,VALID,0,VALID,104,VALID,300.298,VALID,22.2923,VALID,152,VALID,0,
2016-04-27, 08:28:04,VALID,918.014,VALID,0,VALID,104,VALID,312.654,VALID,22.2338,VALID,159,VALID,0,
2016-04-27, 08:29:04,VALID,918.038,VALID,0,VALID,104,VALID,252.809,VALID,22.294,VALID,153,VALID,0,
2016-04-27, 08:30:04,VALID,918.027,VALID,0,VALID,104,VALID,277.843,VALID,22.3313,VALID,153,VALID,0,
2016-04-27, 08:31:04,VALID,918.046,VALID,0,VALID,104,VALID,262.801,VALID,22.3508,VALID,168,VALID,0,
2016-04-27, 08:32:04,VALID,918.057,VALID,0,VALID,104,VALID,286.868,VALID,22.4094,VALID,194,VALID,0,
2016-04-27, 08:33:04,VALID,918.078,VALID,0,VALID,104,VALID,240.991,VALID,22.5264,VALID,186,VALID,0,
2016-04-27, 08:34:04,VALID,918.069,VALID,0,VALID,104,VALID,238.412,VALID,22.6452,VALID,197,VALID,0,
2016-04-27, 08:35:04,VALID,918.097,VALID,0,VALID,104,VALID,253.991,VALID,22.7233,VALID,189,VALID,0,
2016-04-27, 08:36:04,VALID,918.108,VALID,0,VALID,104,VALID,225.089,VALID,22.8014,VALID,182,VALID,0,
2016-04-27, 08:37:04,VALID,918.101,VALID,0,VALID,104,VALID,206.932,VALID,22.8599,VALID,185,VALID,0,
2016-04-27, 08:38:04,VALID,918.108,VALID,0,VALID,104,VALID,201.774,VALID,22.9575,VALID,185,VALID,0,
2016-04-27, 08:39:04,VALID,918.101,VALID,0,VALID,104,VALID,207.254,VALID,22.9965,VALID,184,VALID,0,
2016-04-27, 08:40:04,VALID,918.083,VALID,0,VALID,103.427,VALID,210.692,VALID,22.977,VALID,205,VALID,0,
2016-04-27, 08:41:04,VALID,918.06,VALID,0,VALID,103.549,VALID,246.47,VALID,22.9185,VALID,206,VALID,0,
2016-04-27, 08:42:04,VALID,918.052,VALID,0,VALID,103.206,VALID,276.339,VALID,22.9575,VALID,179,VALID,0,
2016-04-27, 08:43:04,VALID,918.046,VALID,0,VALID,103.435,VALID,288.587,VALID,23.0356,VALID,204,VALID,0,
2016-04-27, 08:44:04,VALID,918.09,VALID,0,VALID,104,VALID,270.752,VALID,23.016,VALID,208,VALID,0,
2016-04-27, 08:45:04,VALID,918.079,VALID,0,VALID,104,VALID,322.538,VALID,23.0551,VALID,208,VALID,0,
2016-04-27, 08:46:04,VALID,918.089,VALID,0,VALID,104,VALID,362.936,VALID,23.0941,VALID,204,VALID,0,
2016-04-27, 08:47:04,VALID,918.093,VALID,0,VALID,103.076,VALID,400.863,VALID,23.2502,VALID,200,VALID,0,
2016-04-27, 08:48:04,VALID,918.107,VALID,0,VALID,102.215,VALID,387.648,VALID,23.4259,VALID,200,VALID,0,
2016-04-27, 08:49:04,VALID,918.12,VALID,0,VALID,101.559,VALID,409.995,VALID,23.5626,VALID,193,VALID,0,
2016-04-27, 08:50:04,VALID,918.139,VALID,0,VALID,90.5586,VALID,422.673,VALID,23.6602,VALID,193,VALID,0,
2016-04-27, 08:51:04,VALID,918.152,VALID,0,VALID,87.7836,VALID,441.476,VALID,23.7773,VALID,193,VALID,0,
2016-04-27, 08:52:04,VALID,918.15,VALID,0,VALID,84.8029,VALID,401.508,VALID,23.8926,VALID,193,VALID,0,
2016-04-27, 08:53:04,VALID,918.114,VALID,0,VALID,86.4572,VALID,420.632,VALID,23.992,VALID,193,VALID,0,
2016-04-27, 08:54:04,VALID,918.12,VALID,0,VALID,88.1191,VALID,457.162,VALID,24.1073,VALID,193,VALID,0,
2016-04-27, 08:55:04,VALID,918.148,VALID,0,VALID,84.6352,VALID,475.427,VALID,24.3239,VALID,133,VALID,0,
2016-04-27, 08:56:04,VALID,918.127,VALID,0,VALID,81.197,VALID,486.923,VALID,24.3825,VALID,132,VALID,0,
2016-04-27, 08:57:04,VALID,918.096,VALID,0,VALID,82.2338,VALID,487.998,VALID,24.5368,VALID,133,VALID,0,
2016-04-27, 08:58:04,VALID,918.085,VALID,0,VALID,79.5885,VALID,469.303,VALID,24.7907,VALID,133,VALID,0,
2016-04-27, 08:59:04,VALID,918.122,VALID,0,VALID,77.8579,VALID,398.177,VALID,24.8883,VALID,170,VALID,0,
2016-04-27, 09:00:04,VALID,918.101,VALID,0,VALID,77.4005,VALID,354.448,VALID,24.8688,VALID,170,VALID,0,
2016-04-27, 09:01:04,VALID,918.097,VALID,0,VALID,77.2862,VALID,335.968,VALID,24.8316,VALID,199,VALID,0,
2016-04-27, 09:02:04,VALID,918.119,VALID,0,VALID,78.4221,VALID,362.614,VALID,24.7321,VALID,174,VALID,0,
2016-04-27, 09:03:04,VALID,918.136,VALID,0,VALID,78.8566,VALID,398.284,VALID,24.6949,VALID,174,VALID,0,
2016-04-27, 09:04:04,VALID,918.128,VALID,0,VALID,78.2391,VALID,421.921,VALID,24.7516,VALID,174,VALID,0,
2016-04-27, 09:05:04,VALID,918.137,VALID,0,VALID,78.6737,VALID,378.945,VALID,24.693,VALID,178,VALID,0,
2016-04-27, 09:06:04,VALID,918.148,VALID,0,VALID,78.8947,VALID,308.786,VALID,24.6345,VALID,178,VALID,0,
2016-04-27, 09:07:04,VALID,918.121,VALID,0,VALID,79.901,VALID,304.918,VALID,24.4978,VALID,181,VALID,0,
2016-04-27, 09:08:04,VALID,918.142,VALID,0,VALID,81.1055,VALID,321.249,VALID,24.4197,VALID,181,VALID,0,
2016-04-27, 09:09:04,VALID,918.141,VALID,0,VALID,81.2351,VALID,313.084,VALID,24.4783,VALID,181,VALID,0,
2016-04-27, 09:10:04,VALID,918.095,VALID,0,VALID,83.6975,VALID,328.555,VALID,24.5759,VALID,149,VALID,0,
2016-04-27, 09:11:04,VALID,918.135,VALID,0,VALID,80.9759,VALID,344.134,VALID,24.6131,VALID,180,VALID,0,
2016-04-27, 09:12:04,VALID,918.12,VALID,0,VALID,81.319,VALID,363.473,VALID,24.6326,VALID,218,VALID,0,
2016-04-27, 09:13:04,VALID,918.083,VALID,0,VALID,81.5096,VALID,399.896,VALID,24.5545,VALID,241,VALID,0,
2016-04-27, 09:14:04,VALID,918.074,VALID,0,VALID,84.132,VALID,524.205,VALID,24.6326,VALID,227,VALID,0,
2016-04-27, 09:15:04,VALID,918.064,VALID,0,VALID,84.2235,VALID,578.893,VALID,24.8297,VALID,226,VALID,0,
2016-04-27, 09:16:04,VALID,918.068,VALID,0,VALID,81.7306,VALID,593.827,VALID,24.9859,VALID,163,VALID,0,
2016-04-27, 09:17:04,VALID,918.05,VALID,0,VALID,80.4652,VALID,630.894,VALID,25.2203,VALID,163,VALID,0,
2016-04-27, 09:18:04,VALID,918.091,VALID,0,VALID,79.0243,VALID,643.035,VALID,25.4917,VALID,163,VALID,0,
2016-04-27, 09:19:04,VALID,918.075,VALID,0,VALID,75.8835,VALID,610.803,VALID,25.6089,VALID,249,VALID,0,
2016-04-27, 09:20:04,VALID,918.045,VALID,0,VALID,77.9494,VALID,509.056,VALID,25.3941,VALID,286,VALID,0,
2016-04-27, 09:21:04,VALID,918.027,VALID,0,VALID,77.8427,VALID,559.876,VALID,25.1012,VALID,302,VALID,0,
2016-04-27, 09:22:04,VALID,918.017,VALID,0,VALID,79.6876,VALID,569.546,VALID,24.8864,VALID,302,VALID,0,
2016-04-27, 09:23:04,VALID,917.989,VALID,0,VALID,81.5934,VALID,489.717,VALID,24.8688,VALID,333,VALID,0,
2016-04-27, 09:24:04,VALID,917.939,VALID,0,VALID,78.0485,VALID,309.538,VALID,24.8669,VALID,333,VALID,0,
2016-04-27, 09:25:04,VALID,917.958,VALID,0,VALID,78.1629,VALID,303.521,VALID,24.9078,VALID,333,VALID,0,
2016-04-27, 09:26:04,VALID,917.924,VALID,0,VALID,77.736,VALID,621.44,VALID,24.9469,INVALID,360,VALID,0,
2016-04-27, 09:27:04,VALID,917.94,VALID,0,VALID,78.3077,VALID,575.562,VALID,25.0036,VALID,333,VALID,0,
2016-04-27, 09:28:04,VALID,917.938,VALID,0,VALID,75.9292,VALID,580.182,VALID,25.1598,VALID,239,VALID,0,
2016-04-27, 09:29:04,VALID,917.92,VALID,0,VALID,74.4045,VALID,681.929,VALID,25.2984,VALID,199,VALID,0,
2016-04-27, 09:30:04,VALID,917.924,VALID,0,VALID,74.7095,VALID,706.855,VALID,25.3765,VALID,190,VALID,0,
2016-04-27, 09:31:04,VALID,917.92,VALID,0,VALID,74.0234,VALID,718.566,VALID,25.5113,VALID,202,VALID,0,
2016-04-27, 09:32:04,VALID,917.925,VALID,0,VALID,74.374,VALID,712.979,VALID,25.6675,VALID,360,VALID,0,
2016-04-27, 09:33:04,VALID,917.946,VALID,0,VALID,73.444,VALID,710.293,VALID,25.7456,VALID,360,VALID,0,
2016-04-27, 09:34:04,VALID,917.957,VALID,0,VALID,74.801,VALID,718.029,VALID,25.8628,VALID,92,VALID,0,
2016-04-27, 09:35:04,VALID,917.962,VALID,0,VALID,75.7386,VALID,349.291,VALID,25.7066,VALID,179,VALID,0,
2016-04-27, 09:36:04,VALID,917.93,VALID,0,VALID,76.5238,VALID,723.509,VALID,25.687,VALID,173,VALID,0,
2016-04-27, 09:37:04,VALID,917.992,VALID,0,VALID,78.0028,VALID,719.104,VALID,25.687,VALID,232,VALID,0.469141,
2016-04-27, 09:38:04,VALID,917.982,VALID,0,VALID,76.2189,VALID,710.401,VALID,25.7847,VALID,249,VALID,0,
2016-04-27, 09:39:04,VALID,917.998,VALID,0,VALID,76.8821,VALID,729.74,VALID,25.9214,VALID,248,VALID,0,
2016-04-27, 09:40:04,VALID,917.947,VALID,0,VALID,74.4655,VALID,498.634,VALID,25.7066,VALID,251,VALID,0.0195313,
2016-04-27, 09:41:04,VALID,917.974,VALID,0,VALID,75.8225,VALID,502.18,VALID,25.7241,VALID,230,VALID,0,
2016-04-27, 09:42:04,VALID,917.958,VALID,0,VALID,76.5162,VALID,329.307,VALID,25.7632,VALID,285,VALID,0,
2016-04-27, 09:43:04,VALID,917.976,VALID,0,VALID,75.9368,VALID,761.006,VALID,25.8237,VALID,281,VALID,0,
2016-04-27, 09:44:04,VALID,917.941,VALID,0,VALID,73.5202,VALID,739.947,VALID,25.7046,VALID,231,VALID,0,
2016-04-27, 09:45:04,VALID,917.934,VALID,0,VALID,73.4364,VALID,736.187,VALID,25.7046,VALID,208,VALID,0,
2016-04-27, 09:46:04,VALID,917.93,VALID,0,VALID,73.787,VALID,734.145,VALID,25.8022,VALID,215,VALID,0,
2016-04-27, 09:47:04,VALID,917.948,VALID,0,VALID,76.4552,VALID,735.22,VALID,25.8608,INVALID,360,VALID,0,
2016-04-27, 09:48:04,VALID,917.934,VALID,0,VALID,74.6104,VALID,731.889,VALID,26.1342,VALID,352,VALID,0,
2016-04-27, 09:49:04,VALID,917.949,VALID,0,VALID,70.6767,VALID,735.327,VALID,26.3491,VALID,288,VALID,0,
2016-04-27, 09:50:04,VALID,917.912,VALID,0,VALID,73.5126,VALID,736.187,VALID,26.1733,VALID,271,VALID,0,
2016-04-27, 09:51:04,VALID,917.922,VALID,0,VALID,71.8659,VALID,583.728,VALID,26.1342,VALID,249,VALID,0,
2016-04-27, 09:52:04,VALID,917.909,VALID,0,VALID,70.8215,VALID,732.641,VALID,26.2514,VALID,323,VALID,0.115625,
2016-04-27, 09:53:04,VALID,917.881,VALID,0,VALID,74.1149,VALID,312.009,VALID,26.2104,VALID,360,VALID,0.557422,
2016-04-27, 09:54:04,VALID,917.884,VALID,0,VALID,74.7476,VALID,731.782,VALID,26.2905,VALID,25,VALID,0,
2016-04-27, 09:55:04,VALID,917.925,VALID,0,VALID,72.2852,VALID,735.112,VALID,26.4468,VALID,298,VALID,0,
2016-04-27, 09:56:04,VALID,917.913,VALID,0,VALID,72.3843,VALID,722.649,VALID,26.4077,VALID,255,VALID,0,
2016-04-27, 09:57:04,VALID,917.926,VALID,0,VALID,68.4049,VALID,729.74,VALID,26.4488,VALID,273,VALID,0,
2016-04-27, 09:58:04,VALID,917.945,VALID,0,VALID,70.1964,VALID,743.385,VALID,26.271,VALID,271,VALID,0,
2016-04-27, 09:59:04,VALID,917.936,VALID,0,VALID,67.1242,VALID,737.154,VALID,26.1342,VALID,258,VALID,0,
2016-04-27, 10:00:04,VALID,917.925,VALID,0,VALID,69.1291,VALID,731.567,VALID,26.0561,VALID,254,VALID,0,
2016-04-27, 10:01:04,VALID,917.936,VALID,0,VALID,68.8242,VALID,726.517,VALID,26.0171,VALID,228,VALID,0,
2016-04-27, 10:02:04,VALID,917.946,VALID,0,VALID,67.6273,VALID,726.732,VALID,26.1753,VALID,258,VALID,0,
2016-04-27, 10:03:04,VALID,917.951,VALID,0,VALID,68.0314,VALID,530.007,VALID,26.1147,VALID,247,VALID,0,
2016-04-27, 10:04:04,VALID,917.972,VALID,0,VALID,63.9757,VALID,737.261,VALID,26.1342,VALID,248,VALID,0,
2016-04-27, 10:05:04,VALID,917.961,VALID,0,VALID,69.5332,VALID,737.583,VALID,26.0952,VALID,260,VALID,0,
2016-04-27, 10:06:04,VALID,917.973,VALID,0,VALID,69.7543,VALID,737.906,VALID,26.1733,VALID,287,VALID,0,
2016-04-27, 10:07:04,VALID,917.976,VALID,0,VALID,68.8318,VALID,749.509,VALID,26.1928,VALID,259,VALID,0,
2016-04-27, 10:08:04,VALID,917.989,VALID,0,VALID,69.5637,VALID,756.601,VALID,26.1733,VALID,248,VALID,0,
2016-04-27, 10:09:04,VALID,917.978,VALID,0,VALID,72.6207,VALID,758.427,VALID,26.2905,VALID,266,VALID,0,
2016-04-27, 10:10:04,VALID,917.97,VALID,0,VALID,69.9601,VALID,756.063,VALID,26.4488,VALID,228,VALID,0,
2016-04-27, 10:11:04,VALID,917.931,VALID,0,VALID,69.3883,VALID,745.427,VALID,26.4272,VALID,315,VALID,0,
2016-04-27, 10:12:04,VALID,917.934,VALID,0,VALID,68.5803,VALID,743.17,VALID,26.3882,VALID,263,VALID,0.000390625,
2016-04-27, 10:13:04,VALID,917.895,VALID,0,VALID,69.3502,VALID,733.608,VALID,26.2905,VALID,255,VALID,0.003125,
2016-04-27, 10:14:04,VALID,917.878,VALID,0,VALID,69.0148,VALID,750.262,VALID,26.2319,VALID,248,VALID,0,
2016-04-27, 10:15:04,VALID,917.867,VALID,0,VALID,71.6144,VALID,202.849,VALID,26.3882,VALID,247,VALID,0,
2016-04-27, 10:16:04,VALID,917.871,VALID,0,VALID,68.7861,VALID,771.857,VALID,26.2905,VALID,271,VALID,0,
2016-04-27, 10:17:04,VALID,917.87,VALID,0,VALID,69.8229,VALID,771.32,VALID,26.2905,VALID,293,VALID,0,
2016-04-27, 10:18:04,VALID,917.863,VALID,0,VALID,68.5726,VALID,787.329,VALID,26.2319,VALID,249,VALID,0,
2016-04-27, 10:19:04,VALID,917.874,VALID,0,VALID,69.3731,VALID,519.263,VALID,26.2124,VALID,226,VALID,0,
2016-04-27, 10:20:04,VALID,917.858,VALID,0,VALID,69.7466,VALID,791.626,VALID,26.2905,VALID,228,VALID,0,
2016-04-27, 10:21:04,VALID,917.876,VALID,0,VALID,72.3767,VALID,792.808,VALID,26.4858,VALID,252,VALID,0,
2016-04-27, 10:22:04,VALID,917.847,VALID,0,VALID,70.3489,VALID,796.891,VALID,26.6226,VALID,345,VALID,0,
2016-04-27, 10:23:04,VALID,917.86,VALID,0,VALID,69.7543,VALID,805.271,VALID,26.6987,VALID,274,VALID,0,
2016-04-27, 10:24:04,VALID,917.832,VALID,0,VALID,66.6515,VALID,811.396,VALID,26.8765,VALID,273,VALID,0,
2016-04-27, 10:25:04,VALID,917.849,VALID,0,VALID,67.4672,VALID,816.66,VALID,26.7984,VALID,253,VALID,0,
2016-04-27, 10:26:04,VALID,917.841,VALID,0,VALID,69.5789,VALID,615.96,VALID,26.9721,VALID,260,VALID,0,
2016-04-27, 10:27:04,VALID,917.827,VALID,0,VALID,66.8878,VALID,332.53,VALID,27.2847,INVALID,360,VALID,0,
2016-04-27, 10:28:04,VALID,917.804,VALID,0,VALID,65.3708,VALID,755.849,VALID,27.3628,VALID,269,VALID,0,
2016-04-27, 10:29:04,VALID,917.779,VALID,0,VALID,67.917,VALID,801.618,VALID,27.4019,VALID,217,VALID,0,
2016-04-27, 10:30:04,VALID,917.789,VALID,0,VALID,66.6896,VALID,776.907,VALID,27.5777,INVALID,360,VALID,0,
2016-04-27, 10:31:04,VALID,917.804,VALID,0,VALID,67.208,VALID,207.254,VALID,27.7948,VALID,334,VALID,0,
2016-04-27, 10:32:04,VALID,917.813,VALID,0,VALID,65.1116,VALID,202.419,VALID,27.8339,VALID,278,VALID,0.582812,
2016-04-27, 10:33:04,VALID,917.816,VALID,0,VALID,66.7125,VALID,643.143,VALID,27.5777,VALID,28,VALID,0.00585938,
2016-04-27, 10:34:04,VALID,917.809,VALID,0,VALID,67.5511,VALID,821.817,VALID,27.4019,VALID,46,VALID,0,
2016-04-27, 10:35:04,VALID,917.806,VALID,0,VALID,69.0986,VALID,770.675,VALID,27.4214,VALID,31,VALID,0,
2016-04-27, 10:36:04,VALID,917.796,VALID,0,VALID,68.7556,VALID,263.338,VALID,27.48,VALID,21,VALID,0.173438,
2016-04-27, 10:37:04,VALID,917.804,VALID,0,VALID,69.6399,VALID,821.495,VALID,27.3628,VALID,27,VALID,0.114844,
2016-04-27, 10:38:04,VALID,917.792,VALID,0,VALID,68.0237,VALID,807.85,VALID,27.4214,VALID,317,VALID,0,
2016-04-27, 10:39:04,VALID,917.814,VALID,0,VALID,68.3744,VALID,788.833,VALID,27.441,VALID,38,VALID,0,
2016-04-27, 10:40:04,VALID,917.793,VALID,0,VALID,70.0592,VALID,745.749,VALID,27.5777,VALID,36,VALID,0,
2016-04-27, 10:41:04,VALID,917.744,VALID,0,VALID,68.2677,VALID,741.344,VALID,27.695,VALID,34,VALID,0.000390625,
2016-04-27, 10:42:04,VALID,917.736,VALID,0,VALID,65.7825,VALID,667.639,VALID,27.8122,VALID,310,VALID,0.239453,
2016-04-27, 10:43:04,VALID,917.762,VALID,0,VALID,67.4367,VALID,697.508,VALID,27.7145,VALID,317,VALID,0,
2016-04-27, 10:44:04,VALID,917.722,VALID,0,VALID,66.7735,VALID,695.359,VALID,27.6147,VALID,13,VALID,0,
2016-04-27, 10:45:04,VALID,917.741,VALID,0,VALID,67.4825,VALID,716.095,VALID,27.6733,VALID,23,VALID,0,
2016-04-27, 10:46:04,VALID,917.741,VALID,0,VALID,65.6071,VALID,608.762,VALID,27.7536,VALID,12,VALID,0,
2016-04-27, 10:47:04,VALID,917.729,VALID,0,VALID,65.043,VALID,571.694,VALID,27.8317,VALID,17,VALID,0,
2016-04-27, 10:48:04,VALID,917.734,VALID,0,VALID,65.7901,VALID,590.926,VALID,27.949,VALID,23,VALID,0,
2016-04-27, 10:49:04,VALID,917.712,VALID,0,VALID,64.8829,VALID,522.701,VALID,28.0488,VALID,48,VALID,0,
2016-04-27, 10:50:04,VALID,917.714,VALID,0,VALID,65.104,VALID,475.427,VALID,27.9706,VALID,333,VALID,0,
2016-04-27, 10:51:04,VALID,917.662,VALID,0,VALID,64.7914,VALID,225.089,VALID,27.8729,VALID,360,VALID,0,
2016-04-27, 10:52:04,VALID,917.63,VALID,0,VALID,67.7341,VALID,212.089,VALID,27.6971,VALID,359,VALID,0,
2016-04-27, 10:53:04,VALID,917.642,VALID,0,VALID,67.8713,VALID,239.701,VALID,27.5582,VALID,6,VALID,0,
2016-04-27, 10:54:04,VALID,917.588,VALID,0,VALID,66.4152,VALID,497.56,VALID,27.2261,VALID,2,VALID,0,
2016-04-27, 10:55:04,VALID,917.56,VALID,0,VALID,71.1646,VALID,426.219,VALID,26.9331,VALID,353,VALID,0,
2016-04-27, 10:56:04,VALID,917.561,VALID,0,VALID,72.8189,VALID,269.033,VALID,26.894,VALID,32,VALID,0,
2016-04-27, 10:57:04,VALID,917.529,VALID,0,VALID,70.6386,VALID,412.252,VALID,27.0112,VALID,7,VALID,0,
2016-04-27, 10:58:04,VALID,917.538,VALID,0,VALID,68.7861,VALID,584.158,VALID,27.0307,VALID,358,VALID,0,
2016-04-27, 10:59:04,VALID,917.49,VALID,0,VALID,68.1457,VALID,702.987,VALID,27.0503,VALID,26,VALID,0,
2016-04-27, 11:00:04,VALID,917.486,VALID,0,VALID,65.7596,VALID,719.641,VALID,27.15,VALID,17,VALID,0,
2016-04-27, 11:01:04,VALID,917.449,VALID,0,VALID,69.4646,VALID,812.148,VALID,27.1675,VALID,21,VALID,0,
2016-04-27, 11:02:04,VALID,917.486,VALID,0,VALID,66.987,VALID,836.859,VALID,27.3433,VALID,3,VALID,0,
2016-04-27, 11:03:04,VALID,917.444,VALID,0,VALID,66.2932,VALID,851.149,VALID,27.4605,VALID,23,VALID,0,
2016-04-27, 11:04:04,VALID,917.416,VALID,0,VALID,66.5448,VALID,845.24,VALID,27.48,VALID,41,VALID,0,